www.pogodaiklimat.ru

Погода и климат >> Архив погоды >> Россия >> Камчатский край >> Петропавловск-Камчатский


АРХИВ ПОГОДЫ в Петропавловск-Камчатском

Время (UTC), дата Ветер
(напр.,м/с)
 
Видим.   Явления Облачность Т
(С)
Тd
(С)
f
(%)
Тe
(С)
Тes
(С)
Комфортность P
(гПа)
Po
(гПа)
Тmin
(С)
Tmax
(С)
R
(мм)
R24
(мм)
S
(см)
09 18.04 СЗ 5
{11}
50 км 3/1 600 м
[Sc Ac trans Ci fib]
+3.6 -2.9 62 -1 -1 по сезону 1003.3 1000.4 +5.4 0.0
12 18.04 С 3 20 км 10/4 600 м
[Sc Ac und]
+3.4 -4.6 56 0 0 по сезону 1006.4 1003.4
15 18.04 С 3 20 км 10/4 600 м
[Sc Ac und]
+3.4 -4.6 56 0 0 по сезону 1006.4 1003.4
18 18.04 С 4 50 км ясно +1.9 -4.9 61 -3 -3 по сезону 1009.2 1006.2
21 18.04 С 2 50 км ясно +1.9 -3.2 69 -1 +3 по сезону 1011.1 1008.1 +1.5 79
00 19.04 ЮЗ 1 50 км 9/0
[Ac trans Ci fib]
+4.6 -2.4 60 +4 +12 тепло 1011.7 1008.7
03 19.04 Ю 1 50 км 9/8 600 м
[Sc Ac trans Ci fib]
+7.4 -3.2 47 +7 +9 тепло 1011.3 1008.3
06 19.04 ЮВ 4 20 км 10/9 600 м
[Sc Ac trans]
+3.3 -1.6 70 -1 -1 по сезону 1011.8 1008.8
09 19.04 ЮВ 4 20 км в посл. час ливневой дождь 10/10 600 м
[Sc diur, vesp]
+2.1 -0.5 83 -3 -3 по сезону 1012.2 1009.2 +8.7 0.0
12 19.04 ЮВ 5 10 км слабый ливневой снег 10/10 600 м
[Cb cap]
+1.5 -0.7 85 -4 -4 по сезону 1012.7 1009.7
15 19.04 В 6-15
{15}
20 км в посл. час ливневой снег 10/10 600 м
[Sc diur, vesp]
+1.4 -1.9 79 -5 -5 по сезону 1012.0 1009.0
18 19.04 В 5-12
{17}
20 км {ливн. осадки} 10/10 600 м
[Sc diur, vesp]
+2.4 -3.8 64 -3 -3 по сезону 1011.0 1008.0
21 19.04 В 4-12
{15}
20 км 10/10 1080 м
[Sc]
+3.3 -4.1 58 -1 -1 по сезону 1010.1 1007.1 +0.6 4 75
00 20.04 В 5-16
{16}
20 км слабый ливневой снег 9/9 600 м
[Cb cap]
+3.5 -2.8 63 -1 -1 по сезону 1008.4 1005.4
03 20.04 В 6-14
{16}
20 км слабый ливневой дождь 9/9 600 м
[Cb cap]
+3.9 -1.7 67 -1 -1 по сезону 1006.3 1003.3
06 20.04 В 4-12
{16}
20 км в посл. час ливневой снег 9/6 600 м
[Cb cap Ac trans Ci fib]
+3.6 -2.7 63 -1 0 по сезону 1005.0 1002.1
09 20.04 В 4-12
{17}
20 км 8/4 600 м
[Cu Sc Ac lent Ci fib]
+2.9 -4.5 58 -1 -1 по сезону 1004.5 1001.5 +5.0 0.9
12 20.04 СВ 4-10
{15}
20 км 10/9 600 м
[Sc Ac trans]
+4.5 -3.8 55 +1 +1 тепло 1002.2 999.3
15 20.04 СВ 4-10
{17}
20 км слабый ливневой дождь 10/10 600 м
[Cb cap]
+3.6 -3.6 59 -0 -0 по сезону 1001.3 998.3
18 20.04 СВ 6-14
{17}
20 км слабый ливневой дождь 10/10 600 м
[Cb cap]
+3.5 -3.2 62 -2 -2 по сезону 1001.3 998.3
21 20.04 СВ 7-18
{18}
20 км слабый ливневой снег 10/10 600 м
[Cb cap]
+3.7 -2.8 62 -2 -2 по сезону 1001.6 998.7 +2.8 0.3 68
00 21.04 В 4-12
{18}
20 км слабый ливневой дождь 10/8 600 м
[Cb cap Ac und]
+4.4 -2.5 61 +1 +1 по сезону 1001.9 999.0
03 21.04 В 6-15
{19}
20 км слабый ливневой дождь 10/10 600 м
[Cb cap]
+4.4 -2.6 60 -0 -0 по сезону 1002.5 999.5
06 21.04 В 4-10
{17}
20 км слабый ливневой дождь 10/10 600 м
[Cb cap]
+3.9 -2.2 64 -0 -0 по сезону 1003.6 1000.6
09 21.04 СВ 5-12
{19}
20 км слабый ливневой дождь 10/10 600 м
[Cb cap]
+3.5 -2.3 66 -1 -1 по сезону 1005.3 1002.3 +4.8 0.3
12 21.04 В 7-19
{19}
10 км слабый ливневой снег 10/10 600 м
[Cb cap]
+3.2 -2.9 64 -3 -3 по сезону 1006.6 1003.6
15 21.04 В 4-12
{19}
20 км в посл. час ливневой снег 9/5 600 м
[Sc diur, vesp Ac trans Ci fib]
+3.2 -3.8 60 -1 -1 по сезону 1007.4 1004.4
18 21.04 В 5-14
{18}
20 км {ливн. осадки} 10/8 720 м
[Sc Ac As]
+2.2 -3.7 65 -3 -3 по сезону 1008.5 1005.5
21 21.04 В 6-13
{16}
20 км 10/4 600 м
[Sc Ac trans Ci fib]
+2.0 -5.9 56 -3 -3 по сезону 1010.5 1007.5 +1.6 62
00 22.04 В 6-10
{16}
20 км 10/10 600 м
[Sc]
+3.1 -6.7 49 -2 -2 по сезону 1011.4 1008.4
03 22.04 СВ 4
{11}
20 км 9/9 600 м
[Sc]
+4.4 -7.5 42 +1 +2 по сезону 1011.8 1008.8
06 22.04 В 3
{10}
20 км 10/10 600 м
[Sc]
+4.3 -7.0 44 +1 +1 по сезону 1012.6 1009.7
09 22.04 В 4 20 км 9/5 600 м
[Sc Ac trans Ci fib]
+3.0 -7.1 47 -1 -1 по сезону 1014.3 1011.3 +5.1
12 22.04 В 3
{10}
20 км 10/10 1080 м
[Sc]
+2.6 -7.4 48 -1 -1 по сезону 1015.1 1012.1
15 22.04 В 3
{11}
10 км слабый ливневой снег 10/10 600 м
[Cb cap]
+1.6 -6.5 55 -2 -2 по сезону 1015.0 1012.0
18 22.04 ЮВ 1 20 км в посл. час ливневой снег 10/5 600 м
[Sc Ac trans Ci fib]
+1.0 -4.9 65 -0 -0 по сезону 1015.0 1012.0
21 22.04 СЗ 1 50 км 9/0
[Ac trans Ci fib]
+1.9 -5.8 57 +1 +3 по сезону 1014.9 1011.9 +0.8 56
00 23.04 З 1 50 км 10/3 1000 м
[Sc Ac trans]
+3.3 -5.7 52 +2 +6 по сезону 1014.0 1011.0
03 23.04 Ю 1 20 км 10/4 600 м
[Sc Ac trans Ci fib]
+6.3 -5.9 41 +6 +10 тепло 1012.9 1010.0
06 23.04 ЮВ 5 20 км осадки на расстоянии 10/4 600 м
[Cb cap Ac trans Ci fib]
+2.3 -6.3 53 -3 -2 по сезону 1013.2 1010.2
09 23.04 ЮВ 2 20 км осадки на расстоянии 10/8 600 м
[Cb cap Ac trans]
+1.0 -5.6 61 -2 -2 по сезону 1014.5 1011.4 +6.5
12 23.04 С 3 50 км 3/0
[Ci fib]
+0.1 -4.0 74 -4 -4 по сезону 1014.9 1011.9
15 23.04 С 3 50 км 3/0
[Ac trans]
-0.2 -4.8 71 -5 -5 по сезону 1014.6 1011.6
18 23.04 С 5 50 км 10/0
[Ac lent]
-0.4 -4.6 73 -6 -6 по сезону 1014.9 1011.8
21 23.04 С 3 50 км слабый снег 10/0
[As op]
+0.7 -5.5 63 -3 -3 по сезону 1015.4 1012.4 -0.7 52
00 24.04 СЗ 1 20 км {снег} 10/1 1000 м
[Sc Ac As]
+2.0 -4.2 63 +1 +5 по сезону 1015.2 1012.2
03 24.04 Ю 1 50 км 9/1 1000 м
[Sc Ac As]
+5.6 -6.4 42 +5 +10 тепло 1014.8 1011.8
06 24.04 ЮВ 1 50 км 9/3 1000 м
[Cu Sc Ac trans Ci fib]
+6.0 -7.7 37 +6 +7 тепло 1014.2 1011.2
09 24.04 ЮВ 2 50 км 9/0
[Ac trans Ci fib]
+4.4 -4.6 52 +2 +2 по сезону 1014.1 1011.1 +7.8
12 24.04 ЮВ 3 50 км 8/3 600 м
[Sc Ac trans Ci fib]
+2.7 -3.8 62 -1 -1 по сезону 1014.1 1011.1
15 24.04 ЮВ 3 50 км 9/1 600 м
[Sc Ac trans Ci fib]
+1.7 -3.5 68 -2 -2 по сезону 1013.3 1010.3
18 24.04 С 3 50 км 6/0
[Ci fib]
+1.0 -3.4 72 -3 -3 по сезону 1012.7 1009.7
21 24.04 С 6 50 км 3/0
[Ci fib]
+2.2 -5.0 59 -3 -2 по сезону 1012.3 1009.3 +0.8 48
00 25.04 СЗ 5 50 км 5/0
[Ci fib]
+4.2 -4.4 54 -0 +6 по сезону 1011.8 1008.8
03 25.04 СЗ 2 50 км 4/0
[Ci fib]
+6.4 -3.3 50 +5 +16 опасность
простуды
1011.2 1008.2
06 25.04 З 4 50 км 8/0
[Ci fib]
+6.4 -3.9 48 +3 +5 по сезону 1011.1 1008.1

 

Местоположение метеостанции Петропавловск-Камчатский (Камчатский край, Россия): широта 52.87 долгота 158.60 высота над уровнем моря 24 м.

В архиве по умолчанию представлена погода в Петропавловск-Камчатском за последнюю неделю. Архивные данные за месяц целиком и за предыдущие месяцы, начиная с января 2011 года, Вы можете получить, выбрав интересующий диапазон дат из раскрывающегося списка и нажав кнопку "Ввод!".

Внимание! Время в таблицах - всемирное. Для получения местного времени необходимо прибавить поправку, которая в Петропавловск-Камчатском равна 12 ч.

Смотрите также архив погоды в соседних городах и на ближайших метеорологических станциях:

Погода в Петропавловском Маяке (Камчатский край, Россия) (7 км)
Погода в Петропавловск-Камч. 2 (Камчатский край, Россия) (24 км)
Погода в Сосновке (Камчатский край, Россия) (31 км)
Погода в Начиках (Камчатский край, Россия) (66 км)
Погода в Водопадной (Камчатский край, Россия) (124 км)
Погода в Пущино (Камчатский край, Россия) (151 км)
Погода в Большерецке (Камчатский край, Россия) (155 км)
Погода в Семячике (Камчатский край, Россия) (163 км)
Погода в Мильково (Камчатский край, Россия) (201 км)
Погода в Озерной (Камчатский край, Россия) (215 км)

Пояснения к столбцам:

Ветер - указаны скорость ветра в м/с - средняя за 10 мин, порывы в срок и между сроками (в фигурных скобках) и направление, откуда дует ветер: С - северный, СВ - северо-восточный, В - восточный, ЮВ - юго-восточный, Ю - южный, ЮЗ - юго-западный, З - западный, СЗ - северо-западный.
Видимость - горизонтальная дальность видимости в метрах или километрах. При видимости от 1 до 10 км при отсутствии осадков обычно наблюдается дымка, при ухудшении видимости до 1 км и менее - туман. В сухую погоду видимость может ухудшаться дымом, пылью или мглою.
Явления - указаны атмосферные явления, наблюдавшиеся в срок или в последний час перед сроком; фигурными скобками обозначены явления, наблюдавшиеся между сроками (за 1-3 часа до срока); квадратными скобками обозначены град или гололедные отложения с указанием их диаметра в мм.
Облачность - указаны через наклонную черту общая и нижняя облачность в баллах и высота нижней границы облаков в метрах; квадратными скобками обозначены формы облаков: Ci - перистые, Cs - перисто-слоистые, Cc - перисто-кучевые, Ac - высококучевые, As - высокослоистые, Sc - слоисто-кучевые, Ns - слоисто-дождевые, Cu - кучевые, Cb - кучево-дождевые. Подробнее классификацию облаков см. в Атласе облаков (PDF).
T - Температура воздуха - температура, измеренная на высоте 2 м над землей.
Td - Температура точки росы - температура, при понижении до которой содержащийся в воздухе водяной пар достигнет насыщения.
f - Относительная влажность воздуха - влажноcть воздуха, измеренная на высоте 2 м над землей.
Te - Эффективная температура - температура, которую ощущает одетый по сезону человек в тени. Характеристика душности погоды. При расчете учитывается влияние влажности воздуха и скорости ветра на теплоощущения человека.
Tes - Эффективная температура на солнце - температура, которую ощущает человек, с поправкой на солнечный нагрев. Характеристика знойности погоды. Зависит от высоты солнца над горизонтом, облачности и скорости ветра. Ночью, в пасмурную погоду, а также при ветре 12 м/с и более поправка равна нулю.
P - Атмосферное давление - приведенное к уровню моря атмосферное давление.
Po - Атмосферное давление - измеренное на уровне метеостанции атмосферное давление.
Tmin - Минимальная температура - минимум температуры воздуха на высоте 2 м над землей.
Tmax - Максимальная температура - максимум температуры воздуха на высоте 2 м над землей.
R - Количество осадков - Количество выпавших осадков за период времени, мм. При наведении курсора мыши на число - период времени, за который выпало указанное количество осадков.
R24 - Количество осадков - Количество выпавших осадков за 24 часа, мм.
S - Снежный покров - Высота снежного покрова, см. При наведении курсора мыши на число - состояние снежного покрова и степень покрытия местности в баллах.